User: anonymous   Login
Location: Syracuse
(43.0480°N, 76.1480°W)
Time: 08:00:22
(UTC-05:00)
Language:

Cosmos 1140 Rocket - Orbit

View from above orbital plane
View from above orbital plane
View from above satellite
View from above satellite

Ground track
Ground track

The orbit data is extracted from the following two-line orbital elements,

1 11574U 79089B   16042.19132700  .00000042  00000-0  21440-4 0  9998
2 11574  74.0686  47.1308 0014561  76.1626 284.1149 14.40544852906291
Epoch (UTC): 11 February 2016 04:35:30
Eccentricity: 0.0014561
inclination: 74.0686°
perigee height: 746 km
apogee height: 767 km
right ascension of ascending node: 47.1308°
argument of perigee: 76.1626°
revolutions per day: 14.40544852
mean anomaly at epoch: 284.1149°
orbit number at epoch: 90629

The dashed part of the orbit path shows where the satellite is in the earth's shadow,  

DLR